{"data":{"norad_id":50806,"intl_designator":"2022-001D","name":"STARLINK-3335","alt_names":[],"object_type":"PAYLOAD","status":"ACTIVE","operator":null,"country":"US","launch_date":"2022-01-06","launch_site_code":"AFETR","launch_vehicle":null,"mission":null,"orbit_class":"UNKNOWN","rcs_meters":null,"size_class":null,"mass_kg":null,"dimensions":null,"purposes":["comms"],"wikipedia_slug":null,"has_3d_model":false,"image_url":null,"decayed_at":null,"tle_current":{"epoch":"2026-09-19T21:29:48.287328Z","epoch_age_seconds":97534,"freshness":"FRESH","line1":"1 50806U 22001D   26262.89569777 -.00000895  00000+0 -15358-4 0  9999","line2":"2 50806  53.1605 358.2097 0001133  93.9675 266.1458 15.34383944259981","mean_motion":15.34383944,"eccentricity":0.0001133,"inclination_deg":53.1605,"raan_deg":358.2097,"arg_perigee_deg":93.9675,"mean_anomaly_deg":266.1458,"bstar":-1.5358e-5,"rev_number":25998,"period_min":93.8487401169,"perigee_km":461.97588983275,"apogee_km":463.52603504504,"semimajor_km":6840.8879624389,"source":"CELESTRAK","updated_at":"2026-09-20T09:00:39.575388Z"}}}